Location: Kvarnån
(66.4000°N, 22.2667°E)
Time: 20:03:22
(UTC+00:00)

Lacrosse 5 - Pass Details

Date: 15 October 2024
Orbit: 714 x 724 km, 57.0° (Epoch: 09 March)

Event Time Altitude Azimuth Distance (km) Brightness Sun altitude
Rises 17:48:37 0° 257° (WSW) 3,140 6.2 -17.2°
Reaches altitude 10° 17:51:16 10° 246° (WSW) 2,217 5.1 -17.5°
Maximum altitude 17:55:34 28° 189° (S) 1,338 3.1 -17.9°
Enters shadow 17:57:23 23° 155° (SSE) 1,529 3.2 -18.1°
